Regional Weather Roundup
Issued by NWS

Home | Current Version | Previous Version | Graphics & Text | Print | Product List | Glossary On
Versions: 1 2 3 4 5 6 7 8 9 10 11 12 13 14 15 16 17 18 19 20 21 22 23 24 25 26 27 28 29 30 31 32 33 34 35 36 37 38 39 40 41 42 43 44 45 46 47 48 49 50
000
ASUS43 KMKX 292120
RWRWI

WISCONSIN REGIONAL WEATHER ROUNDUP
NATIONAL WEATHER SERVICE MILWAUKEE/SULLIVAN WI
300 PM CST THU JAN 29 2015

NOTE: "FAIR" INDICATES FEW OR NO CLOUDS BELOW 12,000 FEET WITH NO
SIGNIFICANT WEATHER AND/OR OBSTRUCTIONS TO VISIBILITY.

WIZ001-002-006>008-014>016-023>028-292200-
NORTHWEST WISCONSIN

CITY           SKY/WX    TMP DP  RH WIND       PRES   REMARKS
SUPERIOR ARPT  PTSUNNY   22  11  63 N16G25    30.29R WCI   8
ASHLAND        CLOUDY    25  13  60 NW15      30.21R WCI  13
HAYWARD        CLOUDY    24  13  62 N13G23    30.19R WCI  12
SIREN          CLOUDY    25  14  63 NW18G24   30.26R WCI  11
CUMBERLAND     CLOUDY    27  18  69 NW16      30.19R WCI  14
RICE LAKE      CLOUDY    28  18  68 W17G25    30.21R WCI  15
CHETEK         CLOUDY    28  19  70 W9G18     30.18R WCI  19
LADYSMITH      CLOUDY    28  19  68 NW17G25   30.15R WCI  16
EAU CLAIRE     CLOUDY    29  19  66 NW21G29   30.18R WCI  16
MENOMONIE      CLOUDY    30  20  65 NW20G25   30.21R WCI  17
NEW RICHMOND   CLOUDY    27  17  65 NW15G25   30.26R WCI  16
OSCEOLA        CLOUDY    28  17  64 NW16G22   30.30R WCI  16
$$

WIZ003>005-009-010-017-018-292200-
NORTH CENTRAL WISCONSIN

CITY           SKY/WX    TMP DP  RH WIND       PRES   REMARKS
MANITOWISH WTR LGT SNOW  21  17  83 N16G28    30.07R WCI   7
ARBOR VITAE    CLOUDY    24  19  80 N16G32    30.06R HAZE    WCI  11
WOODRUFF       CLOUDY    24  19  80 N16G32    30.06R HAZE    WCI  11
RHINELANDER    CLOUDY    24  16  71 NW15G23   30.03R WCI  11
EAGLE RIVER    LGT SNOW  22  17  78 NW17G31   30.02R WCI   8
LAND O LAKES   LGT SNOW  22  17  81 NW20G30   30.04R WCI   6
PHILLIPS       CLOUDY    26  17  68 NW10G20   30.09R WCI  16
TOMAHAWK       CLOUDY    28  18  67 NW15G24   30.05R WCI  16
MEDFORD        CLOUDY    29  18  64 N21       30.06R WCI  15
MERRILL        CLOUDY    30  18  62 N15G26    30.04R WCI  19
$$

WIZ029-030-035-036-043>047-292200-
CENTRAL WISCONSIN

CITY           SKY/WX    TMP DP  RH WIND       PRES   REMARKS
WAUSAU         CLOUDY    31  17  56 NW16G26   30.02R WCI  20
MOSINEE        CLOUDY    32  19  59 N22G33    30.04R WCI  19
MARSHFIELD     PTSUNNY   32  19  58 NW26G35   30.07R WCI  18
STEVENS POINT  CLOUDY    32  17  55 NW15G24   30.04R WCI  21
WAUPACA        CLOUDY    36  21  55 NW14G23   30.03R WCI  27
WAUTOMA        PTSUNNY   34  23  64 NW21G29   30.04R WCI  22
WISC RAPIDS    CLOUDY    33  18  53 NW22G32   30.07R WCI  21
CAMP DOUGLAS   CLOUDY    36  25  64 NW18G24   30.09R WCI  25
$$

WIZ011>013-019>022-031-037>040-048>050-292200-
NORTHEAST WISCONSIN

CITY           SKY/WX    TMP DP  RH WIND       PRES   REMARKS
ANTIGO         CLOUDY    27  19  71 NW21G35   30.01R WCI  13
SHAWANO        CLOUDY    35  19  52 NW16G24   30.00R WCI  25
OCONTO         CLOUDY    33  21  60 MISG      29.98R
STURGEON BAY   CLOUDY    32  21  64 NW22G30   29.98R WCI  19
GREEN BAY      CLOUDY    34  23  64 NW20      29.98R WCI  23
MANITOWOC      CLOUDY    36  25  64 NW12G20   29.98R WCI  27
APPLETON       CLOUDY    34  21  60 NW18G24   29.99R WCI  23
CLINTONVILLE   CLOUDY    34  19  55 NW13G22   30.01R WCI  25
OSHKOSH        CLOUDY    35  24  64 NW17G26   30.00R WCI  25
$$

WIZ032>034-041-042-053>061-292200-
SOUTHWEST WISCONSIN

CITY           SKY/WX    TMP DP  RH WIND       PRES   REMARKS
LA CROSSE      CLOUDY    36  22  56 NW24G32   30.16R WCI  24
SPARTA         CLOUDY    34  22  61 NW13G20   30.14R WCI  25
VIROQUA        CLOUDY    32  24  73 NW20G26   30.11R WCI  20
BOSCOBEL       CLOUDY    37  24  59 NW14G20   30.14R WCI  28
PRAIRIE DU CHI CLOUDY    35  25  66 NW13G18   30.16R WCI  26
PLATTEVILLE    CLOUDY    34  27  74 NW16G23   30.11R WCI  24
$$

WIZ056-057-062-063-064-067-068-292200-
SOUTH CENTRAL WISCONSIN

CITY           SKY/WX    TMP DP  RH WIND       PRES   REMARKS
REEDSBURG      CLOUDY    33  24  69 NW16      30.08R WCI  23
BARABOO/DELLS  CLOUDY    33  23  66 NW14G26   30.07R WCI  23
LONE ROCK      CLOUDY    35  24  64 NW12G24   30.10R WCI  27
MINERAL POINT  CLOUDY    36  27  69 NW14G26   30.08R WCI  27
MADISON        CLOUDY    35  23  61 NW17G23   30.05R WCI  25
MIDDLETON      CLOUDY    36  25  65 NW13G28   30.06R WCI  27
WATERTOWN      CLOUDY    33  25  71 NW18G24   30.02R WCI  22
MONROE         CLOUDY    34  27  75 NW15G29   30.05R WCI  24
JANESVILLE     CLOUDY    36  27  69 NW16      30.04R WCI  26
$$

WIZ051-052-058>065-066-070>072-292200-
SOUTHEAST WISCONSIN

CITY           SKY/WX    TMP DP  RH WIND       PRES   REMARKS
MILWAUKEE      CLOUDY    35  23  61 NW17      30.01R WCI  25
WAUKESHA       CLOUDY    32  25  74 NW17G25   30.00R WCI  21
MILWAUKEE/TIMM CLOUDY    34  23  64 NW17G28   30.00R WCI  23
RACINE         CLOUDY    35  24  64 NW20G25   30.01R WCI  24
BURLINGTON     CLOUDY    32  25  75 NW18G24   30.02R WCI  20
KENOSHA        CLOUDY    35  26  69 NW16      30.00R WCI  25
FOND DU LAC    CLOUDY    35  24  64 NW14      30.00R WCI  26
SHEBOYGAN      CLOUDY    34  24  67 NW13      29.98R WCI  25
WEST BEND      CLOUDY    32  23  69 NW13G20   29.99R WCI  22
JUNEAU         CLOUDY    33  25  72 NW13G25   30.03R WCI  24
$$

LSZ147-162-292200-
LAKE SUPERIOR

STATION/POSITION TIME  TEMP    WIND        PRES    WAVE
                       AIR SEA DIR/SP/G            HT/PER
                 (UTC) (F)     (DEG/KT/KT) (MB)    (FT/S)
DEVILS ISLAND    2100   23     330/ 20/ 24 1024.5R
PORT WING        2000   25     300/ 20/ 25 1023.0
SAXON HARBOR     2020   26     340/ 21     1021.7R
$$

LMZ867-665-643>646-292200-
LAKE MICHIGAN

STATION/POSITION TIME  TEMP    WIND        PRES    WAVE
                       AIR SEA DIR/SP/G            HT/PER
                 (UTC) (F)     (DEG/KT/KT) (MB)    (FT/S)
NORTHPORT PIER   2103   27     360/ 25     1014.2R
SISTER BAY       2013   32     340/ 24/ 27   N/A
KEWAUNEE LAKESHO 2100   34     320/  5/ 11 1013.5R
SHEBOYGAN LAKESH 2100   34     320/ 13/ 16 1016.0R
PORT WASHINGTON  2000   35     330/ 11/ 18 1015.2R
MILWAUKEE LAKESH 2100   35     330/ 13/ 20   N/A
KENOSHA   LAKESH 2100   35     320/ 12/ 17 1016.3R
$$

TC  - TEMPERATURE IN CELSIUS
VSB - VISIBILITY IN STATUTE MILES
WCI - WIND CHILL INDEX
HX  - HEAT INDEX



USA.gov is the U.S. government's official web portal to all federal, state and local government web resources and services.